This is the latest recevied weather packets stored in our database for station/object DO1MIT-10. If no packets are shown the sender has not sent any weather packets the latest 10 day(s).
| Time | Temp. | Humidity | Pressure | Rain* | Wind** | Luminosity | Snow |
|---|---|---|---|---|---|---|---|
| 1787851409 | 22.78° C | 58% | 1018.3 hPa | - | - | - | - |
| 1787850509 | 23.89° C | 57% | 1018.2 hPa | - | - | - | - |
| 1787849609 | 24.44° C | 56% | 1018.3 hPa | - | - | - | - |
| 1787848709 | 25° C | 55% | 1018.5 hPa | - | - | - | - |
| 1787847808 | 26.67° C | 55% | 1018.7 hPa | - | - | - | - |
| 1787846908 | 25.56° C | 55% | 1019 hPa | - | - | - | - |
| 1787846008 | 25.56° C | 54% | 1018.9 hPa | - | - | - | - |
| 1787845108 | 25.56° C | 54% | 1018.9 hPa | - | - | - | - |
| 1787844208 | 26.67° C | 53% | 1019.1 hPa | - | - | - | - |
| 1787843308 | 28.33° C | 53% | 1019.1 hPa | - | - | - | - |
| 1787842408 | 28.89° C | 54% | 1019.3 hPa | - | - | - | - |
| 1787841508 | 28.33° C | 54% | 1019.5 hPa | - | - | - | - |
| 1787840608 | 28.33° C | 55% | 1019.5 hPa | - | - | - | - |
| 1787839708 | 28.89° C | 56% | 1019.1 hPa | - | - | - | - |
| 1787838807 | 26.67° C | 57% | 1019.2 hPa | - | - | - | - |
| 1787837907 | 26.67° C | 58% | 1019.3 hPa | - | - | - | - |
| 1787837007 | 26.11° C | 58% | 1019.3 hPa | - | - | - | - |
| 1787836107 | 26.11° C | 58% | 1019.3 hPa | - | - | - | - |
| 1787835207 | 26.11° C | 58% | 1019.6 hPa | - | - | - | - |
| 1787834307 | 26.11° C | 59% | 1019.9 hPa | - | - | - | - |
| 1787833407 | 26.11° C | 60% | 1020.1 hPa | - | - | - | - |
| 1787832507 | 26.67° C | 60% | 1020 hPa | - | - | - | - |
| 1787831607 | 26.11° C | 60% | 1019.9 hPa | - | - | - | - |
| 1787830706 | 26.11° C | 61% | 1020.1 hPa | - | - | - | - |
| 1787829806 | 26.11° C | 62% | 1020.2 hPa | - | - | - | - |
* Rain since midnight (hover to see other rain measurements)
** Current wind speed in m/s (hover to see current wind gust speed)